Location: Houhaj�rvi
(61.2833°N, 23.0000°E)
Time: 21:23:32
(UTC+00:00)

Cosmos 2034 Rocket - Pass Details

Date: 27 February 2020
Orbit: 958 x 1000 km, 82.9° (Epoch: 29 March)

Event Time Altitude Azimuth Distance (km) Brightness Sun altitude
Rises 18:30:18 0° 198° (SSW) 3,636 7.0 -20.2°
Reaches altitude 10° 18:32:48 10° 200° (SSW) 2,692 6.3 -20.5°
Maximum altitude 18:38:58 77° 286° (WNW) 993 4.1 -21.2°
Drops below altitude 10° 18:45:11 10° 13° (NNE) 2,713 6.4 -21.9°
Sets 18:47:43 0° 15° (NNE) 3,667 7.1 -22.2°
